Powrót do katalogu

GSLV R/B

AktywnyHEO
NORAD 62851·ROCKET BODY·🇮🇳 India

Wystrzelony Jan 29, 2025 z Satish Dhawan Space Centre

Loading…

Następne Przeloty (najbliższe 24 godziny)

TLE

ŚwieżeSource: Space-Track

Epoka: Sep 10, 2026, 01:03 UTC

1 62851U 25020B   26253.04389526  .00055308 -43740-6  63666-3 0  9992
2 62851  20.4448 195.6051 6999744 263.2342  19.6970  2.70268520 14158

Śledź GSLV R/B w czasie rzeczywistym z AllMySat

Download on the App Store